Weather History for KSUX - January, 2014

Change the Weather History Date:

Wednesday, January 22, 2014

  Actual Average Record
Temperature  
Mean Temperature 11 °F 20 °F  
Max Temperature 25 °F 31 °F 62 °F (1989)
Min Temperature -3 °F 10 °F -21 °F (1936)
Degree Days  
Heating Degree Days 54 45  
Month to date heating degree days 1019 990  
Since 1 July heating degree days 3893 3782  
Cooling Degree Days 0 0  
Month to date cooling degree days 0 0  
Year to date cooling degree days 0 0  
Moisture  
Dew Point 5 °F    
Average Humidity 67    
Maximum Humidity 83    
Minimum Humidity 50    
Precipitation  
Precipitation T in 0.02 in 1.09 in (1982)
Month to date precipitation 0.18 0.44  
Year to date precipitation 0.18 0.44  
Snow  
Snow 0.30 in 0.20 in 17.40 in (1982)
Month to date snowfall 1.9 4.6  
Since 1 July snowfall 5.1 17.8  
Snow Depth 0.00 in    
Sea Level Pressure  
Sea Level Pressure 30.28 in    
Wind  
Wind Speed 18 mph (NNW)    
Max Wind Speed 37 mph    
Max Gust Speed 46 mph    
Visibility 8 miles    
Events Snow    
T = Trace of Precipitation, MM = Missing Value Source: NWS Daily Summary

Daily Weather History Graph

Daily Weather History Graph

Search for Another Location

Airport or City:

Trip Planner

Search our weather history database for the weather conditions in past years. The results will help you decide how hot, cold, wet, or windy it might be!

Date:

Astronomy

Jan. 22, 2014 Rise Set
Actual Time 7:47 AM CST 5:26 PM CST
Civil Twilight 7:17 AM CST 5:57 PM CST
Nautical Twilight 6:43 AM CST 6:31 PM CST
Astronomical Twilight 6:09 AM CST 7:04 PM CST
Moon No Moon Rise 10:41 AM CST (1/22)
Length of Visible Light 10h 39m
Length of Day
9h 38m
Waning Gibbous, 65% of the Moon is Illuminated
Jan 22
Waning Gibbous
Jan 23
Last Quarter
Jan 30
New
Feb 6
First Quarter
Feb 14
Full

Hourly Weather History & Observations

Time (CST) Temp. Windchill Dew Point Humidity Pressure Visibility Wind Dir Wind Speed Gust Speed Precip Events Conditions
12:52 AM 24.1 °F 13.1 °F 17.1 °F 75% 30.10 in 10.0 mi NNW 11.5 mph - N/A   Overcast
1:52 AM 25.0 °F 10.6 °F 16.0 °F 69% 30.08 in 10.0 mi NNW 20.7 mph 27.6 mph N/A   Overcast
2:52 AM 19.9 °F 1.5 °F 10.0 °F 65% 30.11 in 9.0 mi NNW 28.8 mph 46.0 mph 0.00 in Snow Light Snow
3:24 AM 17.1 °F -3.0 °F 7.0 °F 65% 30.06 in 9.0 mi NNW 31.1 mph 40.3 mph 0.00 in Snow Light Snow
3:42 AM 17.1 °F -1.0 °F 8.1 °F 68% 30.07 in 10.0 mi NNW 24.2 mph - 0.00 in   Mostly Cloudy
3:52 AM 16.0 °F -0.9 °F 8.1 °F 71% 30.13 in 10.0 mi NNW 19.6 mph 32.2 mph 0.00 in   Mostly Cloudy
4:08 AM 16.0 °F -3.2 °F 8.1 °F 71% 30.07 in 10.0 mi NNW 26.5 mph 33.4 mph N/A   Scattered Clouds
4:34 AM 16.0 °F -1.7 °F 8.1 °F 71% 30.08 in 10.0 mi NNW 21.9 mph 31.1 mph N/A   Mostly Cloudy
4:52 AM 16.0 °F -1.3 °F 8.1 °F 71% 30.15 in 10.0 mi NNW 20.7 mph 26.5 mph N/A   Overcast
5:25 AM 16.0 °F 1.7 °F 9.0 °F 74% 30.10 in 10.0 mi NNW 13.8 mph - N/A   Scattered Clouds
5:52 AM 15.1 °F 0.5 °F 9.0 °F 77% 30.17 in 10.0 mi NNW 13.8 mph - N/A   Partly Cloudy
6:52 AM 10.9 °F 2.9 °F 7.0 °F 84% 30.17 in 10.0 mi WNW 4.6 mph - N/A   Clear
7:52 AM 14.0 °F 0.5 °F 9.0 °F 80% 30.19 in 10.0 mi North 11.5 mph - N/A   Overcast
8:52 AM 17.1 °F 6.6 °F 10.9 °F 77% 30.18 in 10.0 mi NNW 8.1 mph - N/A   Overcast
9:52 AM 18.0 °F 8.7 °F 10.9 °F 74% 30.20 in 10.0 mi NW 6.9 mph - N/A   Overcast
10:35 AM 18.0 °F 6.9 °F 12.0 °F 78% 30.16 in 1.8 mi North 9.2 mph - 0.00 in Snow Light Snow
10:44 AM 18.0 °F 6.1 °F 12.9 °F 81% 30.17 in 2.0 mi NNW 10.4 mph - 0.00 in Snow Light Snow
10:52 AM 19.0 °F 7.5 °F 14.0 °F 81% 30.23 in 2.0 mi NNW 10.4 mph - 0.00 in Snow Light Snow
11:05 AM 19.9 °F 7.9 °F 15.1 °F 81% 30.17 in 3.0 mi NNW 11.5 mph - 0.00 in Snow Light Snow
11:52 AM 21.0 °F 7.1 °F 12.9 °F 71% 30.24 in 10.0 mi North 16.1 mph 26.5 mph 0.00 in   Overcast
12:10 PM 19.9 °F 4.8 °F 12.9 °F 74% 30.18 in 3.0 mi North 18.4 mph - 0.00 in Snow Light Snow
12:39 PM 21.9 °F 4.5 °F 9.0 °F 58% 30.18 in 10.0 mi NNW 27.6 mph 33.4 mph 0.00 in   Overcast
12:52 PM 19.9 °F 2.8 °F 10.9 °F 68% 30.25 in 7.0 mi North 24.2 mph - 0.00 in Snow Light Snow
12:56 PM 19.0 °F 2.4 °F 10.9 °F 71% 30.20 in 2.5 mi North 21.9 mph 32.2 mph 0.00 in Snow Light Snow
1:03 PM 19.9 °F 2.2 °F 10.0 °F 65% 30.20 in 3.0 mi North 26.5 mph 32.2 mph 0.00 in Snow Light Snow
1:14 PM 19.0 °F 1.3 °F 8.1 °F 62% 30.20 in 10.0 mi North 25.3 mph 31.1 mph 0.00 in   Overcast
1:52 PM 15.1 °F -4.0 °F 6.1 °F 68% 30.30 in 6.0 mi NNE 25.3 mph 33.4 mph 0.00 in Snow Light Snow
2:42 PM 14.0 °F -6.2 °F 1.0 °F 56% 30.28 in 10.0 mi North 27.6 mph 33.4 mph 0.00 in   Mostly Cloudy
2:52 PM 12.9 °F -6.5 °F -0.0 °F 56% 30.35 in 10.0 mi North 24.2 mph 32.2 mph 0.00 in   Overcast
3:52 PM 9.0 °F -12.6 °F -8.0 °F 46% 30.41 in 10.0 mi North 26.5 mph 33.4 mph N/A   Scattered Clouds
4:52 PM 7.0 °F -13.6 °F -8.0 °F 51% 30.46 in 10.0 mi North 21.9 mph 26.5 mph N/A   Clear
5:52 PM 3.0 °F -17.8 °F -9.0 °F 57% 30.53 in 10.0 mi NNW 19.6 mph 25.3 mph N/A   Clear
6:52 PM 1.9 °F -18.1 °F -9.9 °F 58% 30.58 in 10.0 mi NNW 17.3 mph - N/A   Clear
7:52 PM -0.0 °F -21.3 °F -9.9 °F 63% 30.60 in 10.0 mi NNW 18.4 mph - N/A   Clear
8:52 PM -0.9 °F -23.0 °F -9.9 °F 66% 30.63 in 10.0 mi NNW 19.6 mph - N/A   Clear
9:52 PM -0.9 °F -24.1 °F -11.0 °F 62% 30.64 in 10.0 mi NNW 21.9 mph 27.6 mph N/A   Clear
10:52 PM -2.0 °F -23.9 °F -11.0 °F 66% 30.68 in 10.0 mi NNW 18.4 mph - N/A   Clear
11:52 PM -2.9 °F -25.0 °F -11.9 °F 65% 30.71 in 10.0 mi NNW 18.4 mph - N/A   Clear